Hourly Data Report for February 09, 2020

All times are specified in Local Standard Time (LST). Add 1 hour to adjust for Daylight Saving Time where and when it is observed.

YARMOUTH A
NOVA SCOTIA
Current Station Operator: NAVCAN

43°49'37.000" N
66°05'17.000" W
42.90 m
8206495
71603
YQI

Download Data

Hourly Data (February 2020)
Hourly Data Report for February 9, 2020
TIME Temp Definition
°C
Dew Point Definition
°C
Rel Hum Definition
%
Wind Dir Definition
10's deg

Wind Spd Definition
km/h
Visibility Definition
km
Stn Press Definition
kPa
Hmdx Definition


Wind Chill Definition


Weather Definition


00:00 -7.6 -13.2 64 31 27 24.1 102.15   -16 LegendNANA
01:00 -8.0 -12.7 69 33 22 24.1 102.26   -16 LegendNANA
02:00 -8.3 -12.7 71 33 24 16.1 102.37   -16 Snow Showers
03:00 -8.7 -13.4 69 33 25 16.1 102.47   -17 LegendNANA
04:00 -8.9 -13.7 68 33 18 16.1 102.54   -16 LegendNANA
05:00 -8.7 -13.3 70 33 12 24.1 102.66   -14 Mostly Cloudy
06:00 -9.8 -13.4 75 36 9 16.1 102.71   -15 LegendNANA
07:00 -10.1 -12.1 85 4 9 4.8 102.83   -15 Snow Showers
08:00 -10.1 -12.1 86 3 6 4.8 102.93   -14 Snow Showers
09:00 -8.4 -10.8 83 4 7 4.8 103.01   -12 Snow Showers
10:00 -7.2 -10.3 79 36 9 6.4 103.09   -12 Snow Showers
11:00 -6.3 -10.9 70 31 7 16.1 103.14   -10 Snow Showers
12:00 -5.7 -10.2 70 31 7 24.1 103.13   -9 Snow Showers
13:00 -5.0 -10.0 68 27 10 24.1 103.09   -9 LegendNANA
14:00 -5.2 -10.2 68 31 10 24.1 103.10   -10 Mainly Clear
15:00 -4.9 -9.9 68 30 11 24.1 103.10   -9 LegendNANA
16:00 -5.1 -10.7 65 26 14 24.1 103.12   -10 LegendNANA
17:00 -4.8 -10.4 65 24 8 24.1 103.12   -8 Mainly Clear
18:00 -6.4 -10.7 72 24 8 24.1 103.14   -10 LegendNANA
19:00 -6.0 -10.8 69 22 8 24.1 103.18   -10 LegendNANA
20:00 -6.0 -11.3 66 23 7 24.1 103.13   -9 Mainly Clear
21:00 -4.1 -8.4 72 23 12 24.1 103.11   -9 LegendNANA
22:00 -3.8 -6.9 79 22 11 24.1 103.12   -8 LegendNANA
23:00 -2.1 -5.2 80 21 13 24.1 103.07   -7 Mostly Cloudy

Notes on Data Quality.

Legend

  • E = Estimated
  • M = Missing
  • NA = Not Available*
  • [empty] = Indicates an unobserved value
Date modified: